Weather History for Clermont County, Batavia, OH

Change the Weather History Date:

Wednesday, January 29, 2014

  Actual Average (KLUK) Record (KLUK)
Temperature  
Mean Temperature 10 °F -  
Max Temperature 24 °F 39 °F 68 °F (1975)
Min Temperature -4 °F 23 °F -12 °F (1963)
Degree Days  
Heating Degree Days 55    
Moisture  
Dew Point -2 °F    
Average Humidity 54    
Maximum Humidity 78    
Minimum Humidity 36    
Precipitation  
Precipitation 0.00 in - - ()
Sea Level Pressure  
Sea Level Pressure 30.31 in    
Wind  
Wind Speed 5 mph (SW)    
Max Wind Speed 15 mph    
Max Gust Speed 25 mph    
Visibility 10 miles    
Events      
Averages and records for this station are not official NWS values.
T = Trace of Precipitation, MM = Missing Value Source: NWS Daily Summary

Daily Weather History Graph

Daily Weather History Graph

Search for Another Location

Airport:

Trip Planner

Search our weather history database for the weather conditions in past years. The results will help you decide how hot, cold, wet, or windy it might be!

Date:

Astronomy

Jan. 29, 2014 Rise Set
Actual Time 7:45 AM EST 5:54 PM EST
Civil Twilight 7:17 AM EST 6:22 PM EST
Nautical Twilight 6:45 AM EST 6:54 PM EST
Astronomical Twilight 6:13 AM EST 7:26 PM EST
Moon 6:21 AM EST (1/29) 4:52 PM EST (1/29)
Length of Visible Light 11h 05m
Length of Day
10h 08m
Waning Crescent, 2% of the Moon is Illuminated
Jan 29
Waning Crescent
Jan 30
New
Feb 6
First Quarter
Feb 14
Full
Feb 22
Last Quarter

Hourly Weather History & Observations

Time (EST) Temp. Windchill Dew Point Humidity Pressure Visibility Wind Dir Wind Speed Gust Speed Precip Events Conditions
12:15 AM 3.2 °F -4.2 °F -5.8 °F 66% 30.32 in 10.0 mi WSW 3.5 mph - N/A   Clear
12:34 AM 3.2 °F -4.2 °F -5.8 °F 66% 30.32 in 10.0 mi SW 3.5 mph - N/A   Clear
12:55 AM -0.4 °F - -7.6 °F 72% 30.32 in 10.0 mi Calm Calm - N/A   Clear
1:14 AM 1.4 °F - -5.8 °F 72% 30.32 in 10.0 mi Calm Calm - N/A   Clear
1:34 AM -0.4 °F - -7.6 °F 72% 30.32 in 10.0 mi Calm Calm - N/A   Clear
1:55 AM -0.4 °F - -7.6 °F 72% 30.32 in 10.0 mi Calm Calm - N/A   Clear
2:14 AM 1.4 °F - -5.8 °F 72% 30.32 in 10.0 mi Calm Calm - N/A   Clear
2:34 AM -2.2 °F - -7.6 °F 78% 30.32 in 10.0 mi Calm Calm - N/A   Clear
2:55 AM 1.4 °F -6.2 °F -5.8 °F 72% 30.32 in 10.0 mi SW 3.5 mph - N/A   Clear
3:14 AM -4.0 °F - -9.4 °F 78% 30.32 in 10.0 mi Calm Calm - N/A   Clear
3:34 AM 1.4 °F -9.9 °F -5.8 °F 72% 30.32 in 10.0 mi WSW 5.8 mph - N/A   Clear
3:55 AM 3.2 °F -9.1 °F -5.8 °F 66% 30.32 in 10.0 mi WSW 6.9 mph - N/A   Clear
4:14 AM 3.2 °F -9.1 °F -5.8 °F 66% 30.31 in 10.0 mi WSW 6.9 mph - N/A   Clear
4:34 AM 3.2 °F -7.8 °F -5.8 °F 66% 30.31 in 10.0 mi WSW 5.8 mph - N/A   Clear
4:55 AM 3.2 °F -4.2 °F -5.8 °F 66% 30.31 in 10.0 mi WSW 3.5 mph - N/A   Clear
5:14 AM 3.2 °F -7.8 °F -5.8 °F 66% 30.30 in 10.0 mi SW 5.8 mph - N/A   Clear
5:34 AM -0.4 °F - -9.4 °F 66% 30.30 in 10.0 mi Calm Calm - N/A   Clear
5:55 AM 1.4 °F - -5.8 °F 72% 30.32 in 10.0 mi Calm Calm - N/A   Clear
6:14 AM -0.4 °F - -7.6 °F 72% 30.32 in 10.0 mi Calm Calm - N/A   Clear
6:34 AM -0.4 °F - -7.6 °F 72% 30.32 in 10.0 mi Calm Calm - N/A   Clear
6:55 AM -0.4 °F - -5.8 °F 78% 30.32 in 10.0 mi Calm Calm - N/A   Clear
7:14 AM 1.4 °F - -5.8 °F 72% 30.31 in 10.0 mi Calm Calm - N/A   Clear
7:34 AM 1.4 °F - -5.8 °F 72% 30.32 in 10.0 mi Calm Calm - N/A   Clear
7:55 AM 1.4 °F -6.2 °F -5.8 °F 72% 30.32 in 10.0 mi SSW 3.5 mph - N/A   Clear
8:14 AM 3.2 °F -6.2 °F -4.0 °F 72% 30.32 in 10.0 mi SW 4.6 mph - N/A   Clear
8:35 AM 5.0 °F -6.9 °F -4.0 °F 66% 30.33 in 10.0 mi WSW 6.9 mph - N/A   Clear
8:55 AM 6.8 °F -5.9 °F -4.0 °F 61% 30.33 in 10.0 mi WSW 8.1 mph - N/A   Clear
9:14 AM 8.6 °F -3.7 °F -2.2 °F 62% 30.34 in 10.0 mi WSW 8.1 mph - N/A   Clear
9:35 AM 10.4 °F -3.3 °F -2.2 °F 57% 30.35 in 10.0 mi SW 10.4 mph - N/A   Clear
9:55 AM 10.4 °F -3.3 °F -0.4 °F 62% 30.35 in 10.0 mi WSW 10.4 mph - N/A   Clear
10:00 AM 10.4 °F -4.1 °F -0.4 °F 62% 30.35 in 10.0 mi WSW 11.5 mph - N/A   Clear
10:25 AM 12.2 °F -0.2 °F -2.2 °F 53% 30.35 in 10.0 mi SW 9.2 mph - N/A   Clear
10:45 AM 14.0 °F -0.2 °F -2.2 °F 49% 30.35 in 10.0 mi WSW 12.7 mph - N/A   Clear
10:55 AM 14.0 °F -0.2 °F -0.4 °F 53% 30.35 in 10.0 mi WSW 12.7 mph - N/A   Clear
10:56 AM 14.0 °F 1.2 °F -0.4 °F 53% 30.35 in 10.0 mi WSW 10.4 mph - N/A   Clear
11:31 AM 17.6 °F 5.7 °F 1.4 °F 49% 30.35 in 10.0 mi WSW 10.4 mph - N/A   Clear
11:48 AM 17.6 °F 6.4 °F 1.4 °F 49% 30.35 in 10.0 mi WSW 9.2 mph - N/A   Clear
12:02 PM 19.4 °F 7.9 °F 1.4 °F 46% 30.34 in 10.0 mi WSW 10.4 mph - N/A   Clear
12:34 PM 21.2 °F 8.9 °F 1.4 °F 42% 30.32 in 10.0 mi WSW 12.7 mph - N/A   Clear
12:54 PM 21.2 °F 8.9 °F 1.4 °F 42% 30.31 in 10.0 mi WSW 12.7 mph 18.4 mph N/A   Clear
1:15 PM 23.0 °F 11.7 °F 1.4 °F 39% 30.31 in 10.0 mi SW 11.5 mph 19.6 mph N/A   Clear
1:34 PM 23.0 °F 10.6 °F 1.4 °F 39% 30.30 in 10.0 mi WSW 13.8 mph 20.7 mph N/A   Clear
1:54 PM 23.0 °F 10.1 °F 1.4 °F 39% 30.29 in 10.0 mi WSW 15.0 mph 23.0 mph N/A   Clear
2:15 PM 23.0 °F 11.1 °F 1.4 °F 39% 30.29 in 10.0 mi WSW 12.7 mph 25.3 mph N/A   Clear
2:34 PM 23.0 °F 10.6 °F 1.4 °F 39% 30.28 in 10.0 mi West 13.8 mph - N/A   Clear
2:54 PM 23.0 °F 10.6 °F 1.4 °F 39% 30.29 in 10.0 mi WSW 13.8 mph 18.4 mph N/A   Clear
3:15 PM 23.0 °F 11.1 °F 1.4 °F 39% 30.28 in 10.0 mi West 12.7 mph 18.4 mph N/A   Clear
3:34 PM 24.8 °F 14.6 °F 3.2 °F 40% 30.28 in 10.0 mi WSW 10.4 mph 18.4 mph N/A   Clear
3:54 PM 24.8 °F 14.6 °F 3.2 °F 40% 30.29 in 10.0 mi WSW 10.4 mph - N/A   Clear
4:15 PM 24.8 °F 13.4 °F 1.4 °F 36% 30.29 in 10.0 mi West 12.7 mph 19.6 mph N/A   Clear
4:34 PM 24.8 °F 13.4 °F 1.4 °F 36% 30.30 in 10.0 mi WSW 12.7 mph - N/A   Clear
4:54 PM 24.8 °F 14.6 °F 1.4 °F 36% 30.30 in 10.0 mi WSW 10.4 mph - N/A   Clear
5:15 PM 24.8 °F 17.9 °F 1.4 °F 36% 30.31 in 10.0 mi WSW 5.8 mph - N/A   Clear
5:34 PM 24.8 °F 16.9 °F 1.4 °F 36% 30.30 in 10.0 mi WSW 6.9 mph - N/A   Clear
5:54 PM 23.0 °F 15.8 °F 1.4 °F 39% 30.30 in 10.0 mi SW 5.8 mph - N/A   Clear
6:15 PM 23.0 °F - 1.4 °F 39% 30.30 in 10.0 mi Calm Calm - N/A   Clear
6:34 PM 23.0 °F - 1.4 °F 39% 30.31 in 10.0 mi Calm Calm - N/A   Clear
6:54 PM 21.2 °F 16.4 °F 1.4 °F 42% 30.31 in 10.0 mi SSW 3.5 mph - N/A   Clear
7:15 PM 21.2 °F 16.4 °F 1.4 °F 42% 30.31 in 10.0 mi SSW 3.5 mph - N/A   Clear
7:34 PM 21.2 °F 16.4 °F 1.4 °F 42% 30.31 in 10.0 mi SSW 3.5 mph - N/A   Clear
7:54 PM 21.2 °F - 1.4 °F 42% 30.31 in 10.0 mi Calm Calm - N/A   Clear
8:15 PM 19.4 °F - 1.4 °F 46% 30.31 in 10.0 mi Calm Calm - N/A   Clear
8:34 PM 19.4 °F 14.3 °F 1.4 °F 46% 30.31 in 10.0 mi SSW 3.5 mph - N/A   Clear
8:54 PM 19.4 °F - 1.4 °F 46% 30.31 in 10.0 mi Calm Calm - N/A   Clear
9:15 PM 19.4 °F - 1.4 °F 46% 30.31 in 10.0 mi Calm Calm - N/A   Clear
9:34 PM 17.6 °F - 1.4 °F 49% 30.30 in 10.0 mi Calm Calm - N/A   Clear
9:54 PM 19.4 °F 14.3 °F 1.4 °F 46% 30.30 in 10.0 mi South 3.5 mph - N/A   Clear
10:15 PM 17.6 °F 12.3 °F 1.4 °F 49% 30.30 in 10.0 mi South 3.5 mph - N/A   Clear
10:34 PM 17.6 °F 12.3 °F 1.4 °F 49% 30.29 in 10.0 mi South 3.5 mph - N/A   Clear
10:54 PM 17.6 °F 12.3 °F 1.4 °F 49% 30.29 in 10.0 mi South 3.5 mph - N/A   Clear
11:15 PM 17.6 °F 12.3 °F 1.4 °F 49% 30.29 in 10.0 mi South 3.5 mph - N/A   Clear
11:34 PM 17.6 °F 12.3 °F 3.2 °F 53% 30.29 in 10.0 mi SSW 3.5 mph - N/A   Clear
11:55 PM 17.6 °F 10.7 °F 1.4 °F 49% 30.28 in 10.0 mi SSW 4.6 mph - N/A   Clear